FW2156 Weather Reports


time (UTC)temp
F
wind
direction
speed
knots
gust
knots
rain 1hr
in
rain 24hr
in
rain mn
in
humidity
%
barometer
mb
20210518205840 54 293 15.6 19.1 0.00 0.00 0.00 41 1002.4
20210518205337 56 224 16.5 21.7 0.00 0.00 0.00 39 1002.0
20210518204816 57 0 16.5 21.7 0.00 0.00 0.00 41 1001.7
20210518204317 58 296 9.6 10.4 0.00 0.00 0.00 42 1001.7
20210518203813 59 299 11.3 17.4 0.00 0.00 0.00 40 1001.7
20210518203311 59 329 14.8 21.7 0.00 0.00 0.00 33 1001.7
20210518202813 59 187 10.4 13.0 0.00 0.00 0.00 26 1001.4
20210518202315 59 244 6.1 8.7 0.00 0.00 0.00 23 1001.4
20210518201811 58 188 10.4 13.0 0.00 0.00 0.00 26 1001.0
20210518201317 57 167 5.2 8.7 0.00 0.00 0.00 27 1000.7
20210518200815 57 243 7.0 10.4 0.00 0.00 0.00 26 1000.7
20210518200313 57 103 5.2 8.7 0.00 0.00 0.00 26 1001.0
20210518195815 56 258 13.0 17.4 0.00 0.00 0.00 28 1000.7
20210518195314 56 253 16.5 21.7 0.00 0.00 0.00 28 1000.7
20210518194813 56 217 14.8 19.1 0.00 0.00 0.00 30 1000.7
20210518194313 56 226 13.0 14.8 0.00 0.00 0.00 29 1000.7
20210518193817 56 196 9.6 13.0 0.00 0.00 0.00 28 1001.0
20210518193315 56 245 12.2 14.8 0.00 0.00 0.00 28 1001.0
20210518192812 56 161 3.5 4.3 0.00 0.00 0.00 32 1001.4
20210518192317 56 233 9.6 13.0 0.00 0.00 0.00 29 1001.4
20210518191820 56 219 6.1 10.4 0.00 0.00 0.00 31 1001.4
20210518191314 56 200 9.6 14.8 0.00 0.00 0.00 30 1001.4
20210518190811 56 222 18.2 21.7 0.00 0.00 0.00 30 1001.0
20210518190314 56 250 13.0 14.8 0.00 0.00 0.00 28 1001.0
20210518185814 56 249 13.0 19.1 0.00 0.00 0.00 29 1001.4
20210518185315 57 270 16.5 21.7 0.00 0.00 0.00 31 1001.0
20210518184812 57 250 19.1 21.7 0.00 0.00 0.00 28 1000.7
20210518184312 58 238 12.2 14.8 0.00 0.00 0.00 30 1001.0
20210518183816 59 257 15.6 21.7 0.00 0.00 0.00 32 1001.0
20210518183314 59 239 14.8 19.1 0.00 0.00 0.00 32 1000.7
20210518182811 59 223 11.3 13.0 0.00 0.00 0.00 25 1000.3
20210518182315 59 231 14.8 17.4 0.00 0.00 0.00 26 1000.3
20210518181812 59 240 12.2 14.8 0.00 0.00 0.00 25 1000.3
20210518181314 58 275 12.2 19.1 0.00 0.00 0.00 26 1000.3
20210518180845 58 191 8.7 13.0 0.00 0.00 0.00 25 1000.3
20210518180314 58 225 16.5 21.7 0.00 0.00 0.00 24 1000.3
20210518175812 58 258 5.2 6.1 0.00 0.00 0.00 32 1000.3
20210518175316 58 245 17.4 21.7 0.00 0.00 0.00 28 1000.3
20210518174813 58 214 13.0 14.8 0.00 0.00 0.00 26 1000.3
20210518174315 58 238 17.4 19.1 0.00 0.00 0.00 25 1000.3
20210518173814 58 325 11.3 14.8 0.00 0.00 0.00 28 1000.3
20210518173317 57 232 13.0 14.8 0.00 0.00 0.00 33 1000.3
20210518172823 57 282 12.2 14.8 0.00 0.00 0.00 34 1000.3
20210518172316 57 300 3.5 4.3 0.00 0.00 0.00 37 1000.3
20210518171816 58 270 14.8 19.1 0.00 0.00 0.00 36 1000.0
20210518171312 58 295 7.8 10.4 0.00 0.00 0.00 35 1000.3
20210518170823 58 271 20.9 26.1 0.00 0.00 0.00 36 1000.0
20210518170313 59 256 9.6 13.0 0.00 0.00 0.00 37 1000.0
20210518165817 59 292 7.0 8.7 0.00 0.00 0.00 32 1000.0
20210518165316 59 279 11.3 14.8 0.00 0.00 0.00 34 1000.0
20210518164819 59 294 13.0 14.8 0.00 0.00 0.00 33 1000.0
20210518164314 60 247 14.8 17.4 0.00 0.00 0.00 33 1000.0
20210518163812 60 268 6.1 8.7 0.00 0.00 0.00 35 1000.0
20210518163314 61 235 9.6 13.0 0.00 0.00 0.00 34 1000.0
20210518162812 62 315 4.3 6.1 0.00 0.00 0.00 36 999.7
20210518162315 62 219 11.3 14.8 0.00 0.00 0.00 36 1000.0
20210518161815 62 243 10.4 13.0 0.00 0.00 0.00 34 1000.0
20210518161313 62 244 5.2 6.1 0.00 0.00 0.00 29 999.7
20210518160813 62 163 4.3 6.1 0.00 0.00 0.00 28 999.7
20210518160313 62 240 6.1 8.7 0.00 0.00 0.00 28 999.7
20210518155813 61 99 0.0 2.6 0.00 0.00 0.00 31 999.7
20210518155327 60 155 10.4 13.0 0.00 0.00 0.00 30 999.7
20210518154811 59 167 2.6 4.3 0.00 0.00 0.00 37 999.7
20210518154321 59 88 7.0 8.7 0.00 0.00 0.00 39 999.7
20210518153811 58 103 5.2 8.7 0.00 0.00 0.00 44 1000.0
20210518153314 57 248 0.0 0.0 0.00 0.00 0.00 48 1000.0
20210518152813 57 164 5.2 6.1 0.00 0.00 0.00 51 1000.0
20210518152314 56 87 1.7 2.6 0.00 0.00 0.00 53 1000.3
20210518151812 55 91 7.0 8.7 0.00 0.00 0.00 54 1000.3
20210518151312 55 122 2.6 4.3 0.00 0.00 0.00 56 1000.3
20210518150814 54 78 4.3 6.1 0.00 0.00 0.00 57 1000.7
20210518150312 54 110 8.7 10.4 0.00 0.00 0.00 55 1000.7
20210518145813 53 188 0.9 2.6 0.00 0.00 0.00 58 1000.7
20210518145315 53 87 5.2 8.7 0.00 0.00 0.00 60 1000.7
20210518144814 53 137 4.3 6.1 0.00 0.00 0.00 61 1001.0
20210518144316 52 129 5.2 6.1 0.00 0.00 0.00 61 1001.0
20210518143814 52 85 5.2 6.1 0.00 0.00 0.00 62 1001.0
20210518143315 52 130 3.5 4.3 0.00 0.00 0.00 63 1001.0
20210518142819 52 77 6.1 8.7 0.00 0.00 0.00 63 1001.0
20210518142317 52 102 11.3 14.8 0.00 0.00 0.00 63 1001.4
20210518141825 52 76 6.1 8.7 0.00 0.00 0.00 64 1001.0
20210518141316 51 78 1.7 2.6 0.00 0.00 0.00 64 1001.4
20210518140813 51 95 6.1 8.7 0.00 0.00 0.00 64 1001.4
20210518140314 51 144 4.3 6.1 0.00 0.00 0.00 65 1001.4
20210518135812 51 130 6.1 8.7 0.00 0.00 0.00 65 1001.7
20210518135315 51 80 7.8 8.7 0.00 0.00 0.00 66 1001.4
20210518134812 51 84 6.1 8.7 0.00 0.00 0.00 65 1001.4
20210518134313 51 150 6.1 8.7 0.00 0.00 0.00 65 1001.4
20210518133811 50 156 4.3 6.1 0.00 0.00 0.00 65 1001.7
20210518133312 50 94 0.0 0.0 0.00 0.00 0.00 67 1001.7
20210518132821 50 97 5.2 6.1 0.00 0.00 0.00 67 1001.7
20210518132315 50 81 5.2 6.1 0.00 0.00 0.00 68 1001.7
20210518131815 50 126 1.7 2.6 0.00 0.00 0.00 68 1001.7
20210518131314 50 136 1.7 2.6 0.00 0.00 0.00 68 1001.7
20210518130813 49 96 2.6 4.3 0.00 0.00 0.00 68 1001.7
20210518130316 49 121 0.9 2.6 0.00 0.00 0.00 68 1002.0
20210518125814 49 46 2.6 4.3 0.00 0.00 0.00 69 1002.0
20210518125315 49 83 0.0 0.0 0.00 0.00 0.00 69 1002.4
20210518124813 49 109 0.0 0.0 0.00 0.00 0.00 69 1002.4
20210518124311 49 116 0.0 0.0 0.00 0.00 0.00 69 1002.4
20210518123811 49 93 0.0 0.0 0.00 0.00 0.00 69 1002.7
20210518123319 49 70 0.0 0.0 0.00 0.00 0.00 69 1002.7
20210518122814 49 86 0.0 0.0 0.00 0.00 0.00 69 1003.0
20210518122321 49 218 0.0 0.0 0.00 0.00 0.00 70 1002.7
20210518121816 49 82 0.0 0.0 0.00 0.00 0.00 70 1003.0
20210518121313 49 234 0.0 0.0 0.00 0.00 0.00 70 1003.0
20210518120814 49 250 0.0 0.0 0.00 0.00 0.00 70 1003.0
20210518120313 49 239 0.0 0.0 0.00 0.00 0.00 70 1003.0
20210518115816 49 82 0.0 0.0 0.00 0.00 0.00 70 1002.7
20210518115318 49 355 0.0 0.0 0.00 0.00 0.00 70 1002.7
20210518114815 49 259 0.0 0.0 0.00 0.00 0.00 69 1002.7
20210518114314 49 84 0.9 2.6 0.00 0.00 0.00 69 1003.0
20210518113819 49 282 0.0 0.0 0.00 0.00 0.00 69 1002.7
20210518113313 49 274 0.0 0.0 0.00 0.00 0.00 69 1003.0
20210518112824 49 191 0.0 0.0 0.00 0.00 0.00 69 1003.0
20210518112313 49 245 0.0 0.0 0.00 0.00 0.00 69 1003.0
20210518111813 49 118 0.0 0.0 0.00 0.00 0.00 69 1003.0
20210518111314 49 245 0.0 0.0 0.00 0.00 0.00 69 1003.4
20210518110810 49 317 0.0 0.0 0.00 0.00 0.00 69 1003.0
20210518110320 49 74 0.0 0.0 0.00 0.00 0.00 68 1003.0
20210518105813 49 269 0.0 0.0 0.00 0.00 0.00 68 1003.4
20210518105314 49 284 0.0 0.0 0.00 0.00 0.00 69 1003.4
20210518104814 49 268 0.0 0.0 0.00 0.00 0.00 68 1003.4
20210518104312 49 283 0.0 0.0 0.00 0.00 0.00 68 1003.4
20210518103811 49 264 0.0 0.0 0.00 0.00 0.00 68 1003.0
20210518103317 49 294 0.0 0.0 0.00 0.00 0.00 68 1003.4
20210518102812 49 228 0.0 0.0 0.00 0.00 0.00 69 1003.4
20210518102317 49 115 0.0 0.0 0.00 0.00 0.00 69 1003.4
20210518101812 49 208 0.0 0.0 0.00 0.00 0.00 69 1003.0
20210518101314 49 278 0.0 0.0 0.00 0.00 0.00 69 1003.0
20210518100814 49 322 0.0 0.0 0.00 0.00 0.00 69 1003.0
20210518100315 49 317 0.0 0.0 0.00 0.00 0.00 69 1003.0
20210518095811 49 313 0.0 0.0 0.00 0.00 0.00 69 1003.4
20210518095316 49 318 0.0 0.0 0.00 0.00 0.00 69 1003.0
20210518094811 49 279 0.0 0.0 0.00 0.00 0.00 69 1003.0
20210518094316 49 332 0.0 0.0 0.00 0.00 0.00 69 1003.4
20210518093812 49 310 0.9 2.6 0.00 0.00 0.00 68 1003.0
20210518093313 49 308 0.0 0.0 0.00 0.00 0.00 68 1003.0
20210518092813 49 311 0.0 0.0 0.00 0.00 0.00 68 1003.0
20210518092317 49 304 0.0 0.0 0.00 0.00 0.00 68 1003.0
20210518091811 49 291 0.0 0.0 0.00 0.00 0.00 67 1003.7
20210518091313 50 297 0.0 0.0 0.00 0.00 0.00 67 1003.4
20210518090812 50 292 0.0 0.0 0.00 0.00 0.00 67 1003.4
20210518090310 50 307 0.0 0.0 0.00 0.00 0.00 66 1003.7
20210518085815 50 3 0.0 0.0 0.00 0.00 0.00 66 1003.7
20210518085312 50 337 0.0 0.0 0.00 0.00 0.00 65 1003.7
20210518084811 50 301 0.0 0.0 0.00 0.00 0.00 65 1004.1
20210518084310 50 290 0.0 0.0 0.00 0.00 0.00 64 1004.1
20210518083815 50 310 1.7 2.6 0.00 0.00 0.00 64 1003.7
20210518083242 50 274 0.0 0.0 0.00 0.00 0.00 64 1004.1
20210518082814 50 337 2.6 4.3 0.00 0.00 0.00 64 1004.1
20210518082312 50 316 0.0 0.0 0.00 0.00 0.00 64 1004.1
20210518081813 51 243 0.0 0.0 0.00 0.00 0.00 63 1003.7
20210518081314 51 347 0.0 2.6 0.00 0.00 0.00 63 1003.7
20210518080815 51 253 0.0 0.0 0.00 0.00 0.00 63 1003.7
20210518080315 51 78 0.9 2.6 0.00 0.00 0.00 63 1003.7
20210518075814 51 13 1.7 4.3 0.00 0.00 0.00 63 1003.7
20210518075312 51 345 0.0 0.0 0.00 0.00 0.00 63 1003.4
20210518074811 51 22 0.9 2.6 0.00 0.00 0.00 63 1003.4
20210518074314 52 353 0.0 0.0 0.00 0.00 0.00 63 1004.1
20210518073811 52 313 3.5 4.3 0.00 0.00 0.00 63 1004.4
20210518073312 52 308 5.2 6.1 0.00 0.00 0.00 63 1004.4
20210518072820 52 20 3.5 4.3 0.00 0.00 0.00 63 1004.4
20210518072316 52 326 0.0 0.0 0.00 0.00 0.00 63 1004.4
20210518071811 52 307 0.0 0.0 0.00 0.00 0.00 63 1004.7
20210518071314 52 326 0.0 0.0 0.00 0.00 0.00 62 1004.4
20210518070810 52 327 4.3 4.3 0.00 0.00 0.00 62 1004.7
20210518070315 52 251 0.0 0.0 0.00 0.00 0.00 62 1004.7
20210518065813 52 286 2.6 4.3 0.00 0.00 0.00 62 1004.7
20210518065315 53 309 6.1 6.1 0.00 0.00 0.00 62 1004.7
20210518064810 53 69 1.7 4.3 0.00 0.00 0.00 62 1004.7
20210518064313 53 289 6.1 8.7 0.00 0.00 0.00 62 1004.7
20210518063811 53 284 2.6 2.6 0.00 0.00 0.00 62 1004.7
20210518063313 53 329 0.0 0.0 0.00 0.00 0.00 62 1004.4
20210518062814 53 0 2.6 4.3 0.00 0.00 0.00 62 1004.7
20210518062315 53 311 0.0 0.0 0.00 0.00 0.00 62 1004.7
20210518061813 53 344 0.0 0.0 0.00 0.00 0.00 62 1004.7
20210518061315 53 294 3.5 4.3 0.00 0.00 0.00 62 1004.7
20210518060816 53 119 0.0 2.6 0.00 0.00 0.00 62 1004.7
20210518060315 53 16 2.6 4.3 0.00 0.00 0.00 62 1004.4
20210518055813 53 346 4.3 8.7 0.00 0.00 0.00 62 1004.7
20210518055315 53 322 0.0 0.0 0.00 0.00 0.00 62 1004.4
20210518054811 54 302 0.0 0.0 0.00 0.00 0.00 62 1004.4
20210518054313 54 88 0.0 0.0 0.00 0.00 0.00 62 1004.4
20210518053813 54 335 0.0 0.0 0.00 0.00 0.00 61 1004.4
20210518053313 54 216 0.0 2.6 0.00 0.00 0.00 61 1004.4
20210518052810 54 321 2.6 4.3 0.00 0.00 0.00 61 1004.7
20210518052314 54 321 1.7 2.6 0.00 0.00 0.00 61 1004.7
20210518051813 54 82 0.0 0.0 0.00 0.00 0.00 61 1004.7
20210518051316 54 73 6.1 8.7 0.00 0.00 0.00 61 1004.7
20210518050813 55 302 6.1 8.7 0.00 0.00 0.00 61 1004.4
20210518050314 55 17 0.9 2.6 0.00 0.00 0.00 60 1004.1
20210518045812 55 347 6.1 8.7 0.00 0.00 0.00 60 1004.1
20210518045313 55 57 5.2 8.7 0.00 0.00 0.00 60 1003.7
20210518044810 55 21 3.5 6.1 0.00 0.00 0.00 60 1003.7
20210518044315 56 18 4.3 8.7 0.00 0.00 0.00 59 1003.7
20210518043812 56 347 0.9 2.6 0.00 0.00 0.00 59 1003.7
20210518043313 57 0 1.7 2.6 0.00 0.00 0.00 59 1003.7
20210518042740 57 188 6.1 8.7 0.00 0.00 0.00 59 1003.4
20210518042311 57 257 3.5 6.1 0.00 0.00 0.00 58 1003.4
20210518041813 58 339 9.6 10.4 0.00 0.00 0.00 58 1003.4
20210518041315 58 20 2.6 4.3 0.00 0.00 0.00 58 1003.4
20210518040814 59 5 1.7 2.6 0.00 0.00 0.00 58 1003.4
20210518040315 59 294 2.6 4.3 0.00 0.00 0.00 57 1003.0
20210518035810 60 23 4.3 6.1 0.00 0.00 0.00 57 1003.4
20210518035315 60 33 2.6 4.3 0.00 0.00 0.00 57 1003.0
20210518034810 61 301 2.6 6.1 0.00 0.00 0.00 56 1003.0
20210518034316 61 349 2.6 2.6 0.00 0.00 0.00 56 1003.0
20210518033815 62 162 0.0 2.6 0.00 0.00 0.00 55 1003.0
20210518033315 63 285 0.9 2.6 0.00 0.00 0.00 55 1003.0
20210518032812 64 252 5.2 10.4 0.00 0.00 0.00 54 1002.7
20210518032313 65 14 3.5 6.1 0.00 0.00 0.00 54 1003.0
20210518031814 66 40 6.1 6.1 0.00 0.00 0.00 53 1003.0
20210518031313 68 85 0.9 2.6 0.00 0.00 0.00 51 1002.7
20210518030817 69 7 4.3 6.1 0.00 0.00 0.00 49 1002.4
20210518030313 71 29 2.6 4.3 0.00 0.00 0.00 47 1002.0
20210518025812 72 343 4.3 8.7 0.00 0.00 0.00 43 1002.0
20210518025314 73 324 3.5 4.3 0.00 0.00 0.00 41 1002.0
20210518024811 74 12 2.6 4.3 0.00 0.00 0.00 35 1001.7
20210518024312 75 344 4.3 6.1 0.00 0.00 0.00 20 1001.4
20210518023813 75 322 2.6 2.6 0.00 0.00 0.00 19 1001.4
20210518023314 76 276 0.0 0.0 0.00 0.00 0.00 19 1001.4
20210518022819 76 225 2.6 4.3 0.00 0.00 0.00 19 1001.0
20210518022315 76 269 1.7 2.6 0.00 0.00 0.00 19 1001.0
20210518021813 77 275 0.9 4.3 0.00 0.00 0.00 19 1001.0
20210518021320 77 232 0.0 2.6 0.00 0.00 0.00 18 1000.7
20210518020812 76 252 0.0 0.0 0.00 0.00 0.00 18 1001.0
20210518020317 76 233 0.0 0.0 0.00 0.00 0.00 18 1000.7
20210518015814 76 278 3.5 4.3 0.00 0.00 0.00 18 1000.7
20210518015313 76 232 0.0 0.0 0.00 0.00 0.00 18 1000.7
20210518014810 77 240 2.6 4.3 0.00 0.00 0.00 18 1000.7
20210518014314 77 239 3.5 6.1 0.00 0.00 0.00 18 1000.7
20210518013821 78 201 0.0 0.0 0.00 0.00 0.00 18 1000.7
20210518013310 79 238 0.0 2.6 0.00 0.00 0.00 17 1000.7
20210518012813 79 230 2.6 4.3 0.00 0.00 0.00 17 1000.7
20210518012313 80 192 0.0 0.0 0.00 0.00 0.00 16 1000.7
20210518011914 80 179 1.7 2.6 0.00 0.00 0.00 16 1000.7
20210518011313 80 238 0.0 0.0 0.00 0.00 0.00 16 1000.7
20210518010811 80 166 2.6 2.6 0.00 0.00 0.00 16 1000.7
20210518010315 80 173 0.0 2.6 0.00 0.00 0.00 15 1000.7
20210518005818 80 159 1.7 2.6 0.00 0.00 0.00 16 1000.7
20210518005315 80 172 0.0 0.0 0.00 0.00 0.00 15 1000.3
20210518004812 80 139 1.7 2.6 0.00 0.00 0.00 15 1000.7
20210518004415 80 257 0.9 2.6 0.00 0.00 0.00 15 1000.7
20210518003812 80 217 6.1 8.7 0.00 0.00 0.00 15 1000.3
20210518003314 80 219 3.5 6.1 0.00 0.00 0.00 15 1000.7
20210518002914 80 225 2.6 6.1 0.00 0.00 0.00 16 1000.7
20210518002314 79 137 0.0 2.6 0.00 0.00 0.00 16 1001.0
20210518001815 79 280 3.5 4.3 0.00 0.00 0.00 15 1000.7
20210518001318 80 227 7.0 8.7 0.00 0.00 0.00 15 1000.7
20210518000827 80 270 10.4 13.0 0.00 0.00 0.00 15 1000.7
20210518000415 80 231 2.6 4.3 0.00 0.00 0.00 15 1000.7
20210517235913 80 249 6.1 8.7 0.00 0.00 0.00 15 1000.7
20210517235312 80 221 7.8 14.8 0.00 0.00 0.00 14 1000.7
20210517234814 80 233 6.1 8.7 0.00 0.00 0.00 14 1000.7
20210517234312 80 195 2.6 4.3 0.00 0.00 0.00 14 1000.7
20210517233812 80 250 6.1 8.7 0.00 0.00 0.00 14 1001.0
20210517233315 80 257 3.5 4.3 0.00 0.00 0.00 15 1001.0
20210517232811 80 216 5.2 6.1 0.00 0.00 0.00 15 1000.7
20210517232315 80 200 6.1 6.1 0.00 0.00 0.00 14 1001.0
20210517231812 80 229 7.0 8.7 0.00 0.00 0.00 15 1001.0
20210517231312 80 268 10.4 13.0 0.00 0.00 0.00 14 1001.0
20210517230814 80 233 6.1 8.7 0.00 0.00 0.00 14 1001.0
20210517230316 80 246 7.0 8.7 0.00 0.00 0.00 15 1001.0
20210517225813 79 242 3.5 4.3 0.00 0.00 0.00 14 1001.0
20210517225315 79 170 4.3 6.1 0.00 0.00 0.00 15 1000.7
20210517224813 79 252 6.1 8.7 0.00 0.00 0.00 14 1001.0
20210517224315 79 266 7.0 8.7 0.00 0.00 0.00 14 1001.0
20210517223815 79 234 7.0 8.7 0.00 0.00 0.00 14 1001.0
20210517223317 80 170 2.6 4.3 0.00 0.00 0.00 15 1001.4
20210517222821 80 239 11.3 13.0 0.00 0.00 0.00 14 1001.0
20210517222314 80 253 8.7 10.4 0.00 0.00 0.00 14 1001.4
20210517221813 80 245 7.0 8.7 0.00 0.00 0.00 15 1001.0
20210517221316 80 275 14.8 19.1 0.00 0.00 0.00 14 1001.4
20210517220814 80 213 8.7 13.0 0.00 0.00 0.00 13 1001.0
20210517220314 80 232 1.7 2.6 0.00 0.00 0.00 14 1001.4
20210517215813 80 115 0.0 0.0 0.00 0.00 0.00 14 1001.4
20210517215313 80 297 4.3 6.1 0.00 0.00 0.00 14 1001.4
20210517214813 80 249 12.2 14.8 0.00 0.00 0.00 14 1001.4
20210517214320 80 260 5.2 8.7 0.00 0.00 0.00 15 1001.4
20210517213820 79 246 5.2 6.1 0.00 0.00 0.00 14 1001.4
20210517213316 79 282 5.2 6.1 0.00 0.00 0.00 15 1001.4
20210517212815 79 268 7.8 8.7 0.00 0.00 0.00 14 1001.4
20210517212316 79 263 2.6 2.6 0.00 0.00 0.00 14 1001.4
20210517211816 78 196 1.7 2.6 0.00 0.00 0.00 15 1001.4
20210517211313 78 193 9.6 13.0 0.00 0.00 0.00 14 1001.7
20210517210815 78 255 7.8 10.4 0.00 0.00 0.00 15 1001.7
20210517210312 78 299 6.1 8.7 0.00 0.00 0.00 15 1001.7